Regional Weather Roundup
Issued by NWS

Home | Current Version | Previous Version | Graphics & Text | Print | Product List | Glossary Off
Versions: 1 2 3 4 5 6 7 8 9 10 11 12 13 14 15 16 17 18 19 20 21 22 23 24 25 26 27 28 29 30 31 32 33 34 35 36 37 38 39 40 41 42 43 44 45 46 47 48 49 50

000
ASUS43 KMKX 211400
RWRWI

WISCONSIN REGIONAL WEATHER ROUNDUP
NATIONAL WEATHER SERVICE MILWAUKEE/SULLIVAN WI
900 AM CDT THU AUG 21 2014

NOTE: "FAIR" INDICATES FEW OR NO CLOUDS BELOW 12,000 FEET WITH NO
SIGNIFICANT WEATHER AND/OR OBSTRUCTIONS TO VISIBILITY.

WIZ001-002-006>008-014>016-023>028-211500-
NORTHWEST WISCONSIN

CITY           SKY/WX    TMP DP  RH WIND       PRES   REMARKS
SUPERIOR ARPT  LGT RAIN  60  60  99 NE8G16    29.90F
ASHLAND        CLOUDY    63  61  93 NE5       29.94F
HAYWARD        LGT RAIN  63  62  97 NE3       29.89F
SIREN          RAIN      65  64  96 E3        29.86F
RICE LAKE      TSTM      64  62  94 CALM      29.91R VSB 1/2
LADYSMITH      LGT RAIN  64  63  94 SE7       29.92F
EAU CLAIRE     RAIN      67  66  97 S6        29.87F FOG
MENOMONIE      CLOUDY    67  67  98 CALM      29.83F
NEW RICHMOND   LGT RAIN  66  66 100 E5        29.83F
OSCEOLA        LGT RAIN  67  67 100 E6        29.84F
$$

WIZ003>005-009-010-017-018-211500-
NORTH CENTRAL WISCONSIN

CITY           SKY/WX    TMP DP  RH WIND       PRES   REMARKS
WOODRUFF       CLOUDY    64  62  92 SE6       29.96F
RHINELANDER    CLOUDY    62  61  96 E9        29.97F
EAGLE RIVER    CLOUDY    64  62  94 SE3       29.98F
LAND O LAKES   CLOUDY    63  61  92 S3        30.00S
PHILLIPS       CLOUDY    61  60  98 E5        29.92F
TOMAHAWK       CLOUDY    61  60  97 E3        29.96F FOG
MEDFORD        LGT RAIN  62  62  99 E6        29.92F
MERRILL        CLOUDY    62  62 100 CALM      29.95F FOG
$$

WIZ029-030-035-036-043>047-211500-
CENTRAL WISCONSIN

CITY           SKY/WX    TMP DP  RH WIND       PRES   REMARKS
WAUSAU         CLOUDY    64  62  93 SE7       29.94F FOG
MOSINEE        FOG       63  63 100 E3        29.96F VSB 1
MARSHFIELD     LGT RAIN  64  63  96 E7        29.93R FOG
STEVENS POINT  CLOUDY    63  62  96 SE5       29.95F FOG
WAUPACA        CLOUDY    67  66  94 E3        29.95S FOG
WAUTOMA        NOT AVBL
WISC RAPIDS    LGT RAIN  65  64  97 E6        29.93F FOG
CAMP DOUGLAS   CLOUDY    66  66 100 SE5       29.93R
$$

WIZ011>013-019>022-031-037>040-048>050-211500-
NORTHEAST WISCONSIN

CITY           SKY/WX    TMP DP  RH WIND       PRES   REMARKS
ANTIGO         CLOUDY    63  63 100 SE6       29.98F FOG
STURGEON BAY   CLOUDY    64  63  94 E7        29.98F
GREEN BAY      PTSUNNY   70  63  78 SE7       29.96F
MANITOWOC      NOT AVBL
APPLETON       PTSUNNY   68  63  83 SE9       29.96S
CLINTONVILLE   PTSUNNY   64  63  94 E3        29.96F FOG
OSHKOSH        CLOUDY    70  64  81 E8        29.94F
$$

WIZ032>034-041-042-053>061-211500-
SOUTHWEST WISCONSIN

CITY           SKY/WX    TMP DP  RH WIND       PRES   REMARKS
LA CROSSE      LGT RAIN  71  68  90 SW9       29.94R
SPARTA         RAIN      68  66  93 CALM      29.91R
VIROQUA        CLOUDY    67  67 100 SE5       29.90F
BOSCOBEL       CLOUDY    71  68  90 NW6       29.90R
PRAIRIE DU CHI CLOUDY    71  67  87 SE9       29.89R
PLATTEVILLE    FAIR      70  67  92 SE10      29.93R
$$

WIZ056-057-062-063-064-067-068-211500-
SOUTH CENTRAL WISCONSIN

CITY           SKY/WX    TMP DP  RH WIND       PRES   REMARKS
BARABOO/DELLS  CLOUDY    67  65  93 CALM      29.92S FOG
LONE ROCK      NOT AVBL
WATERTOWN      CLOUDY    69  67  96 SE5       29.94F
MADISON        CLOUDY    71  67  87 S7        29.92F THUNDER
MIDDLETON      FAIR      71  70  96 SE5       29.93F
MONROE         CLOUDY    68  68 100 SW14      29.96R THUNDER
JANESVILLE     SUNNY     70  68  94 CALM      29.92S
$$

WIZ051-052-058>065-066-070>072-211500-
SOUTHEAST WISCONSIN

CITY           SKY/WX    TMP DP  RH WIND       PRES   REMARKS
MILWAUKEE      PTSUNNY   73  66  78 SW6       29.95F
WAUKESHA       PTSUNNY   68  64  88 SE3       29.97S
MILWAUKEE/TIMM PTSUNNY   72  64  78 S3        29.97S
RACINE         PTSUNNY   74  67  78 SW7       29.98S
BURLINGTON     PTSUNNY   69  67  93 CALM      29.95F
KENOSHA        CLOUDY    73  69  87 SW5       29.96F
FOND DU LAC    PTSUNNY   70  64  81 S8        29.94F
SHEBOYGAN      MOSUNNY   69  63  81 SE7       29.97S
WEST BEND      CLOUDY    66  63  88 SE5       29.97S FOG
JUNEAU         CLOUDY    68  41  37 SE7       29.96S
$$

LSZ147-162-211500-
LAKE SUPERIOR

STATION/POSITION TIME  TEMP    WIND        PRES    WAVE
                       AIR SEA DIR/SP/G            HT/PER
                 (UTC) (F)     (DEG/KT/KT) (MB)    (FT/S)
W MID LAKE BUOY  1250   58 57   70/  8/ 10 1014.0F   0
DEVILS ISLAND    1200   61      80/ 12/ 13 1013.7F
PORT WING        1340   65      80/  3/  4 1013.2F
SAXON HARBOR     1340   63        CALM     1013.5F
$$

LMZ867-665-643>646-211500-
LAKE MICHIGAN

STATION/POSITION TIME  TEMP    WIND        PRES    WAVE
                       AIR SEA DIR/SP/G            HT/PER
                 (UTC) (F)     (DEG/KT/KT) (MB)    (FT/S)
N MID LAKE BUOY  1250   64 63  130/  4/  4 1014.8R   0
NORTHPORT PIER   1300   65      80/  3/  3 1015.2R
ALGOMA LAKESHORE 1208             CALM       N/A
KEWAUNEE LAKESHO 1300   66      80/  2/  3 1014.1R
SHEBOYGAN LAKESH 1300   66 66  150/  3/  4 1015.2R
ATWATER BUOY     1300   68     100/  2/  4 1016.0R
MILWAUKEE LAKESH 1300   70      80/  2/  3   N/A
S MID LAKE BUOY  1250   68 68   CALM  /  2 1014.2R   0
KENOSHA   LAKESH 1300   72     250/  6/ 11 1014.9R
$$

TC  - TEMPERATURE IN CELSIUS
VSB - VISIBILITY IN STATUTE MILES
WCI - WIND CHILL INDEX
HX  - HEAT INDEX




USA.gov is the U.S. government's official web portal to all federal, state and local government web resources and services.